星链-32649 (STARLINK-32649)

导读 | 豆包AI

STARLINK-32649是美国SpaceX公司星链(Starlink)星座的卫星,于2024年12月13日发射入轨,属于SpaceX当年第88批星链发射任务的组成部分。星链星座旨在构建全球卫星互联网覆盖网络,提供高速低延迟通信服务,包括面向手机直连等应用拓展。该卫星入轨后将与其他数千颗星链卫星组网,推动全球无缝网络覆盖建设,截至2024年底SpaceX已累计发射超过7500颗星链卫星。

Basic Information
目录编号:
62305
目录名称:
STARLINK-32649
国际标识:
2024-239E
轨道中心:
EARTH
卫星名称:
星链-32649
卫星全名:
星链-32649 (STARLINK-32649)
卫星状态:
在轨 (已飞行503 天)
发射日期:
2024-12-13 UTC
国别 :
美国 (US)
星等 :
--
Orbit Information
数据来源 国际轨道数据 AOE轨道数据
星历时间 2026-04-30T04:00:02+0800
4小时前
查看轨道信息
2026-04-28T16:00:00+0800
1天前
查看轨道信息
半长轴 6853.397km 6853.388km
偏心率 0.0001298 0.0000858
轨道倾角 53.159° 53.161°
近地点辐角 82.806° 105.644°
升交点赤经 315.990° 322.955°
平近点角 130.854° 120.221°
近地点 474.37km 474.662km
远地点 476.15km 475.84km
周期 94.106分钟 94.106分钟
每日圈数 15.30185 15.301881
Detailed Information
固有亮度:
5
最大亮度:
2.5
卫星平台:
Starlink V1.0
覆盖范围:
全球
运营商:
太空探索技术公司
运营商所在国:
美国
制造商(研发单位):
太空探索技术公司
制造商所在国:
美国
使用方式:
暂无
Satellite Introduction
Starlink 计划是 SpaceX 推出的全球卫星互联网项目,通过发射低轨道卫星,为全球尤其是偏远地区提供高速、低延迟的互联网服务。自 2019 年起,Starlink 已部署数千颗卫星,旨在缩小全球数字鸿沟,推动互联网普及。该项目还为军事、航空等行业提供通信支持,带来广泛经济效益。
2D Orbit Map
3D Orbit Map
Orbit Altitude Analysis Chart
Orbit Inclination Analysis Chart
Orbit Comprehensive Analysis Chart
View Comprehensive Chart